DW9945 Weather Reports


time (UTC)temp
C
wind
direction
speed
KPH
gust
KPH
rain 1hr
cm
rain 24hr
cm
rain mn
cm
humidity
%
barometer
mb
20260509231507 10 211 3.2 9.7 0.10 0.99 0.10 92 1013.5
20260509231007 10 197 8.0 12.9 0.00 0.89 0.00 91 1013.6
20260509230507 10 187 4.8 9.7 0.00 0.89 0.00 90 1013.3
20260509230008 10 181 4.8 8.0 0.00 0.89 0.00 90 1013.2
20260509225507 10 197 4.8 8.0 0.00 0.89 0.00 90 1013.1
20260509224508 10 211 1.6 4.8 0.00 0.89 0.00 90 1013.1
20260509223508 10 206 3.2 8.0 0.00 0.89 0.00 89 1013.0
20260509223008 10 193 8.0 14.5 0.00 0.89 0.00 89 1013.0
20260509222507 10 176 4.8 11.3 0.00 0.89 0.00 89 1012.8
20260509222007 10 189 6.4 9.7 0.03 0.89 0.00 87 1012.6
20260509221507 10 187 6.4 11.3 0.05 0.89 0.00 86 1012.6
20260509220508 10 211 6.4 16.1 0.08 0.89 0.00 86 1012.6
20260509215507 10 256 8.0 16.1 0.23 0.89 0.89 88 1012.5
20260509215007 10 252 4.8 12.9 0.23 0.89 0.89 89 1012.5
20260509214508 10 250 8.0 12.9 0.23 0.89 0.89 89 1012.5
20260509214007 10 261 8.0 14.5 0.23 0.89 0.89 89 1012.5
20260509213507 10 262 9.7 19.3 0.23 0.89 0.89 89 1012.5
20260509213007 10 267 9.7 20.9 0.23 0.89 0.89 90 1012.6
20260509212507 10 283 8.0 14.5 0.23 0.89 0.89 90 1012.6
20260509212007 10 287 11.3 19.3 0.20 0.86 0.86 89 1012.6
20260509211507 10 280 8.0 22.5 0.20 0.86 0.86 89 1012.7
20260509211007 10 273 14.5 27.4 0.15 0.81 0.81 88 1012.7
20260509210008 11 294 12.9 24.1 0.13 0.79 0.79 85 1012.6
20260509205507 12 275 22.5 41.8 0.00 0.66 0.66 78 1012.6
20260509204507 13 194 14.5 25.7 0.00 0.66 0.66 75 1011.1
20260509204007 13 191 11.3 22.5 0.00 0.66 0.66 75 1011.0
20260509203508 13 188 16.1 25.7 0.00 0.66 0.66 74 1011.0
20260509203007 13 196 14.5 24.1 0.00 0.66 0.66 75 1010.9
20260509202507 13 188 11.3 22.5 0.00 0.66 0.66 75 1010.8
20260509202007 13 191 11.3 24.1 0.00 0.66 0.66 75 1010.7
20260509201507 13 194 11.3 25.7 0.00 0.66 0.66 76 1010.6
20260509201007 13 179 6.4 16.1 0.00 0.66 0.66 76 1010.5
20260509200507 13 186 9.7 19.3 0.00 0.66 0.66 76 1010.3
20260509200008 13 188 14.5 24.1 0.00 0.66 0.66 76 1010.3
20260509195507 13 182 9.7 19.3 0.00 0.66 0.66 76 1010.2
20260509195007 13 177 9.7 19.3 0.00 0.66 0.66 76 1010.1
20260509194507 13 173 9.7 19.3 0.00 0.66 0.66 76 1010.0
20260509194007 13 179 9.7 20.9 0.00 0.66 0.66 76 1009.9
20260509193507 13 171 11.3 22.5 0.00 0.66 0.66 77 1009.8
20260509193007 13 193 12.9 20.9 0.00 0.66 0.66 79 1009.7
20260509192507 13 190 9.7 19.3 0.00 0.66 0.66 82 1009.6
20260509192007 13 167 9.7 16.1 0.00 0.66 0.66 83 1009.4
20260509191507 13 160 6.4 11.3 0.00 0.66 0.66 83 1009.4
20260509191007 13 131 0.0 4.8 0.00 0.66 0.66 83 1009.4
20260509190507 13 154 1.6 4.8 0.00 0.66 0.66 83 1009.5
20260509190008 14 206 4.8 9.7 0.00 0.66 0.66 82 1009.4
20260509185507 14 191 4.8 9.7 0.00 0.66 0.66 82 1009.4
20260509185007 14 167 4.8 11.3 0.00 0.66 0.66 82 1009.2
20260509184509 14 179 8.0 16.1 0.00 0.66 0.66 82 1009.3
20260509184010 14 154 8.0 14.5 0.00 0.66 0.66 81 1009.3
20260509183512 14 167 9.7 19.3 0.00 0.66 0.66 81 1009.3
20260509183008 14 163 6.4 16.1 0.00 0.66 0.66 80 1009.3
20260509182507 14 147 9.7 16.1 0.00 0.66 0.66 80 1009.3
20260509182007 14 173 6.4 14.5 0.00 0.66 0.66 80 1009.3
20260509181507 14 180 11.3 19.3 0.00 0.66 0.66 79 1009.2
20260509180507 14 184 11.3 19.3 0.00 0.66 0.66 78 1009.4
20260509180008 14 176 11.3 19.3 0.00 0.66 0.66 78 1009.4
20260509175507 14 167 9.7 16.1 0.00 0.66 0.66 79 1009.4
20260509175007 14 180 9.7 16.1 0.03 0.66 0.66 79 1009.5
20260509174507 13 174 9.7 19.3 0.13 0.66 0.66 80 1009.4
20260509174007 13 182 8.0 19.3 0.15 0.66 0.66 83 1009.4
20260509173507 13 169 8.0 14.5 0.15 0.66 0.66 83 1009.4
20260509173007 13 157 3.2 9.7 0.15 0.66 0.66 85 1009.4
20260509172507 13 147 4.8 11.3 0.15 0.66 0.66 85 1009.4
20260509172007 13 161 8.0 14.5 0.15 0.66 0.66 85 1009.4
20260509171507 13 165 8.0 19.3 0.15 0.66 0.66 86 1009.5
20260509171007 13 174 8.0 14.5 0.15 0.66 0.66 85 1009.6
20260509165506 13 197 9.7 22.5 0.15 0.66 0.66 81 1009.4
20260509165013 14 188 17.7 32.2 0.15 0.64 0.64 78 1009.6
20260509164507 15 172 11.3 20.9 0.05 0.53 0.53 78 1009.6
20260509164007 15 161 8.0 11.3 0.03 0.51 0.51 75 1009.2
20260509163507 16 189 1.6 4.8 0.00 0.51 0.51 73 1009.0
20260509163007 16 243 3.2 8.0 0.00 0.51 0.51 71 1009.0
20260509162507 16 200 4.8 9.7 0.00 0.51 0.51 70 1008.9
20260509161507 16 254 0.0 4.8 0.00 0.51 0.51 71 1008.9
20260509161006 16 238 4.8 11.3 0.00 0.51 0.51 68 1008.9
20260509160507 16 239 4.8 4.8 0.00 0.51 0.51 71 1008.9
20260509160007 16 281 1.6 4.8 0.00 0.51 0.51 71 1009.0
20260509155507 16 278 3.2 4.8 0.00 0.51 0.51 71 1009.0
20260509155007 15 5 0.0 4.8 0.00 0.51 0.51 74 1009.0
20260509154507 15 263 1.6 4.8 0.00 0.51 0.51 74 1009.1
20260509154007 15 182 4.8 9.7 0.00 0.51 0.51 74 1009.1
20260509153507 15 179 4.8 11.3 0.00 0.51 0.51 74 1009.2
20260509153013 15 150 3.2 9.7 0.00 0.51 0.51 76 1009.3
20260509152506 15 166 3.2 4.8 0.00 0.51 0.51 79 1009.6
20260509152006 15 205 3.2 9.7 0.00 0.51 0.51 77 1009.6
20260509151007 15 192 6.4 14.5 0.00 0.51 0.51 76 1009.7
20260509150507 15 169 6.4 11.3 0.00 0.51 0.51 75 1009.7
20260509150007 15 186 6.4 19.3 0.00 0.51 0.51 75 1009.7
20260509145007 15 146 8.0 16.1 0.00 0.51 0.51 75 1009.5
20260509144006 15 134 6.4 14.5 0.00 0.51 0.51 76 1009.6
20260509143506 14 156 4.8 16.1 0.00 0.51 0.51 76 1009.4
20260509143006 14 153 6.4 9.7 0.00 0.51 0.51 76 1009.6
20260509142506 13 150 4.8 8.0 0.05 0.51 0.51 76 1009.7
20260509142006 13 149 4.8 12.9 0.08 0.51 0.51 78 1009.7
20260509141506 13 147 4.8 14.5 0.10 0.51 0.51 78 1010.0
20260509141006 13 134 4.8 11.3 0.15 0.51 0.51 80 1010.0
20260509140506 12 88 3.2 4.8 0.23 0.51 0.51 85 1010.1
20260509135507 12 114 3.2 8.0 0.33 0.51 0.51 85 1010.0
20260509135006 12 118 3.2 8.0 0.36 0.51 0.51 87 1010.2
20260509134506 12 156 1.6 8.0 0.41 0.51 0.51 88 1010.3
20260509134006 11 196 0.0 8.0 0.41 0.51 0.51 88 1010.3
20260509133506 11 172 4.8 9.7 0.41 0.51 0.51 87 1010.7
20260509133006 11 187 9.7 12.9 0.41 0.51 0.51 87 1010.7
20260509132506 12 197 4.8 14.5 0.33 0.43 0.43 90 1010.7
20260509132006 12 246 11.3 19.3 0.33 0.43 0.43 89 1010.7
20260509131506 12 262 8.0 16.1 0.30 0.41 0.41 91 1010.7
20260509131006 12 287 8.0 16.1 0.23 0.33 0.33 90 1010.8
20260509130506 12 283 16.1 25.7 0.18 0.28 0.28 89 1010.8
20260509130007 12 292 16.1 22.5 0.13 0.23 0.23 88 1010.4
20260509125507 12 278 8.0 14.5 0.08 0.18 0.18 88 1010.3
20260509125007 12 285 14.5 19.3 0.05 0.15 0.15 87 1010.0
20260509124507 13 290 11.3 22.5 0.00 0.13 0.10 86 1010.0
20260509124006 13 307 14.5 20.9 0.00 0.15 0.10 85 1009.9
20260509123507 13 308 16.1 19.3 0.00 0.20 0.10 83 1009.9
20260509122507 13 312 12.9 19.3 0.00 0.33 0.10 80 1009.7
20260509122006 14 302 14.5 22.5 0.00 0.33 0.10 80 1009.9
20260509121506 14 282 12.9 20.9 0.00 0.33 0.10 79 1009.9
20260509120506 15 276 4.8 19.3 0.00 0.33 0.10 76 1009.8
20260509115507 15 260 4.8 14.5 0.00 0.33 0.10 75 1009.7
20260509115007 15 272 8.0 16.1 0.00 0.33 0.10 74 1009.8
20260509114007 15 269 4.8 12.9 0.00 0.33 0.10 74 1009.8
20260509113506 15 222 8.0 19.3 0.00 0.33 0.10 72 1009.8
20260509113007 15 258 9.7 14.5 0.00 0.33 0.10 72 1009.8
20260509112006 15 236 8.0 16.1 0.03 0.33 0.10 73 1009.9
20260509111506 15 275 8.0 19.3 0.03 0.33 0.10 73 1009.8
20260509111006 15 248 9.7 19.3 0.03 0.33 0.10 74 1010.0
20260509110506 15 282 9.7 19.3 0.03 0.33 0.10 74 1010.0
20260509110007 15 264 4.8 19.3 0.03 0.36 0.10 75 1010.0
20260509105506 15 238 9.7 19.3 0.03 0.38 0.10 73 1010.1
20260509105006 15 239 8.0 16.1 0.03 0.41 0.10 72 1010.1
20260509104507 15 222 4.8 12.9 0.03 0.41 0.10 74 1010.1
20260509104006 15 204 11.3 16.1 0.03 0.43 0.10 70 1010.2
20260509103507 15 200 11.3 19.3 0.03 0.46 0.10 70 1010.2
20260509103007 15 201 9.7 19.3 0.03 0.46 0.10 72 1010.2
20260509102008 15 195 14.5 22.5 0.03 0.43 0.08 70 1010.2
20260509101508 15 172 9.7 19.3 0.08 0.43 0.08 70 1010.2
20260509101008 15 165 14.5 25.7 0.08 0.43 0.08 70 1010.1
20260509100508 15 175 11.3 24.1 0.08 0.43 0.08 74 1010.1
20260509100008 15 192 11.3 20.9 0.08 0.43 0.08 73 1010.1
20260509095508 15 168 9.7 20.9 0.08 0.43 0.08 77 1010.1
20260509095008 14 185 9.7 24.1 0.08 0.43 0.08 77 1010.0
20260509094508 13 174 8.0 14.5 0.08 0.43 0.08 80 1010.0
20260509094008 13 168 8.0 12.9 0.08 0.43 0.08 81 1010.1
20260509093508 13 191 8.0 19.3 0.08 0.43 0.08 82 1010.2
20260509093008 13 188 8.0 12.9 0.08 0.43 0.08 82 1010.4
20260509092508 13 177 8.0 14.5 0.08 0.43 0.08 81 1010.4
20260509092008 13 176 11.3 19.3 0.05 0.43 0.05 80 1010.4
20260509091508 13 163 14.5 27.4 0.00 0.36 0.00 77 1010.4
20260509091007 14 178 14.5 25.7 0.00 0.36 0.00 74 1010.3
20260509090509 14 171 14.5 22.5 0.00 0.36 0.00 74 1010.3
20260509090013 13 172 14.5 22.5 0.00 0.36 0.00 74 1010.3
20260509085508 13 181 14.5 25.7 0.00 0.36 0.00 74 1010.2
20260509084008 13 180 12.9 19.3 0.00 0.36 0.00 75 1010.2
20260509083508 13 169 11.3 22.5 0.00 0.36 0.00 76 1010.1
20260509083008 13 186 11.3 20.9 0.00 0.36 0.00 76 1010.2
20260509082008 13 161 9.7 20.9 0.00 0.36 0.00 77 1010.0
20260509081508 13 169 9.7 19.3 0.00 0.36 0.00 77 1010.2
20260509081008 13 152 9.7 19.3 0.00 0.36 0.00 78 1010.3
20260509080008 13 179 8.0 16.1 0.00 0.36 0.00 78 1010.5
20260509075507 12 175 9.7 16.1 0.00 0.36 0.00 79 1010.5
20260509074508 12 179 9.7 12.9 0.00 0.36 0.00 79 1010.5
20260509074007 12 166 8.0 12.9 0.00 0.36 0.00 80 1010.6
20260509072507 12 147 0.0 3.2 0.00 0.36 0.00 81 1010.3
20260509072008 12 153 0.0 0.0 0.00 0.36 0.00 81 1010.5
20260509071007 12 196 3.2 8.0 0.00 0.36 0.00 81 1010.5
20260509070508 12 226 4.8 11.3 0.00 0.36 0.00 81 1010.6
20260509070008 12 213 0.0 4.8 0.00 0.36 0.00 81 1010.6
20260509065508 12 204 4.8 11.3 0.00 0.36 0.00 81 1010.6
20260509065008 12 195 4.8 9.7 0.00 0.36 0.00 81 1010.6
20260509064508 12 180 1.6 9.7 0.00 0.36 0.00 82 1010.7
20260509063508 12 275 0.0 0.0 0.00 0.36 0.00 83 1010.5
20260509063008 12 284 0.0 0.0 0.00 0.36 0.00 82 1010.6
20260509062008 12 224 4.8 4.8 0.00 0.36 0.00 81 1010.5
20260509061508 12 173 3.2 9.7 0.00 0.36 0.00 80 1010.4
20260509060508 12 150 4.8 11.3 0.00 0.36 0.00 80 1010.3
20260509060008 12 155 6.4 12.9 0.00 0.36 0.00 80 1010.3
20260509055508 12 150 6.4 12.9 0.00 0.36 0.00 80 1010.3
20260509053508 12 151 9.7 19.3 0.00 0.36 0.00 81 1010.2
20260509053007 12 154 9.7 19.3 0.00 0.36 0.00 81 1010.2
20260509052008 12 164 4.8 11.3 0.00 0.36 0.00 81 1010.1
20260509051507 12 176 4.8 12.9 0.00 0.36 0.00 81 1009.9
20260509050507 12 164 6.4 12.9 0.00 0.36 0.00 82 1009.8
20260509050008 12 137 4.8 14.5 0.00 0.36 0.00 82 1009.7
20260509045508 12 143 6.4 11.3 0.00 0.36 0.00 82 1009.7
20260509045008 12 127 6.4 11.3 0.00 0.36 0.00 82 1009.6
20260509043508 12 107 3.2 8.0 0.00 0.36 0.00 82 1009.5
20260509043008 12 137 8.0 12.9 0.00 0.36 0.00 82 1009.5
20260509042008 12 131 12.9 22.5 0.00 0.36 0.00 83 1009.1
20260509041508 12 117 8.0 16.1 0.00 0.36 0.00 83 1009.3
20260509041007 12 161 8.0 16.1 0.00 0.36 0.00 83 1009.7
20260509040008 12 165 8.0 14.5 0.00 0.36 0.00 84 1009.9
20260509035507 12 150 8.0 14.5 0.00 0.36 0.00 84 1010.0
20260509035008 12 162 8.0 16.1 0.00 0.36 0.00 84 1010.1
20260509034008 12 163 8.0 12.9 0.00 0.36 0.00 84 1010.1
20260509033507 12 170 8.0 14.5 0.00 0.36 0.00 84 1010.2
20260509032007 12 190 8.0 11.3 0.00 0.36 0.00 84 1010.5
20260509031507 12 178 4.8 9.7 0.00 0.36 0.00 84 1010.4
20260509030008 12 155 4.8 8.0 0.00 0.36 0.00 84 1010.3
20260509025508 12 161 4.8 9.7 0.00 0.36 0.00 84 1010.4
20260509025007 12 146 3.2 4.8 0.00 0.36 0.00 84 1010.5
20260509024508 12 146 0.0 0.0 0.00 0.36 0.00 84 1010.5
20260509024008 12 146 0.0 0.0 0.00 0.36 0.00 84 1010.5
20260509023508 12 146 0.0 0.0 0.00 0.36 0.00 83 1010.4
20260509022008 12 145 4.8 9.7 0.00 0.36 0.00 83 1010.4
20260509021507 12 136 3.2 9.7 0.00 0.36 0.00 83 1010.5
20260509021007 12 144 4.8 11.3 0.00 0.36 0.00 83 1010.4
20260509020507 12 142 6.4 11.3 0.00 0.36 0.00 82 1010.4
20260509015507 12 149 8.0 19.3 0.00 0.36 0.00 82 1010.6
20260509015007 12 151 8.0 16.1 0.00 0.36 0.00 82 1010.6
20260509014507 12 154 9.7 16.1 0.00 0.36 0.00 82 1010.6
20260509013507 12 145 6.4 16.1 0.00 0.36 0.00 81 1010.6
20260509013008 12 145 8.0 14.5 0.00 0.36 0.00 81 1010.6
20260509012507 12 147 4.8 14.5 0.00 0.36 0.00 81 1010.6
20260509012007 12 146 11.3 20.9 0.00 0.36 0.00 81 1010.8
20260509011507 12 145 9.7 20.9 0.00 0.36 0.00 81 1010.8
20260509011007 12 153 8.0 14.5 0.00 0.36 0.00 81 1010.9
20260509010507 12 169 9.7 19.3 0.00 0.36 0.00 80 1011.0
20260509010008 13 138 6.4 19.3 0.00 0.36 0.00 80 1010.9
20260509005007 12 140 6.4 20.9 0.00 0.36 0.00 81 1010.9
20260509004507 12 166 6.4 19.3 0.00 0.36 0.00 81 1011.1
20260509004008 12 163 6.4 14.5 0.00 0.36 0.00 81 1011.1
20260509003508 12 157 4.8 12.9 0.00 0.36 0.00 81 1011.3
20260509001507 12 149 0.0 8.0 0.00 0.36 0.00 82 1011.3
20260509001007 12 125 4.8 9.7 0.00 0.36 0.00 83 1011.4
20260509000007 12 98 4.8 9.7 0.00 0.36 0.00 84 1011.4
20260508235509 12 98 4.8 9.7 0.00 0.36 0.00 85 1011.4
20260508235007 12 87 0.0 4.8 0.00 0.36 0.00 86 1011.4
20260508234007 11 34 0.0 0.0 0.00 0.36 0.00 88 1011.6
20260508233508 11 34 0.0 0.0 0.00 0.36 0.00 88 1011.4
20260508233008 11 31 1.6 4.8 0.00 0.36 0.00 89 1011.4
20260508232507 11 43 3.2 8.0 0.00 0.36 0.00 89 1011.4
20260508232007 11 355 4.8 11.3 0.00 0.36 0.00 89 1011.3